This is the latest recevied weather packets stored in our database for station/object KC3UTO. If no packets are shown the sender has not sent any weather packets the latest 1 day(s).
| Time | Temp. | Humidity | Pressure | Rain* | Wind** | Luminosity | Snow |
|---|---|---|---|---|---|---|---|
| 1778014715 | 26.67° C | 32% | 1007 hPa | 0 mm | 1.79 m/s, 223° | 151 W/m² | - |
| 1778014414 | 27.22° C | 32% | 1007.2 hPa | 0 mm | 1.34 m/s, 128° | 199 W/m² | - |
| 1778014110 | 27.22° C | 32% | 1007 hPa | 0 mm | 0.89 m/s, 340° | 156 W/m² | - |
| 1778013808 | 27.22° C | 33% | 1007.2 hPa | 0 mm | 2.68 m/s, 250° | 166 W/m² | - |
| 1778013505 | 27.22° C | 32% | 1007.2 hPa | 0 mm | 0 m/s | 229 W/m² | - |
| 1778013202 | 27.22° C | 32% | 1007.2 hPa | 0 mm | 1.34 m/s, 255° | 139 W/m² | - |
| 1778012898 | 27.22° C | 32% | 1007.2 hPa | 0 mm | 2.24 m/s, 230° | 111 W/m² | - |
| 1778012594 | 27.22° C | 32% | 1007.2 hPa | 0 mm | 2.24 m/s, 260° | 112 W/m² | - |
| 1778012291 | 27.78° C | 33% | 1007.3 hPa | 0 mm | 0.45 m/s, 86° | 108 W/m² | - |
| 1778011989 | 27.22° C | 31% | 1007.5 hPa | 0 mm | 1.79 m/s, 167° | 109 W/m² | - |
| 1778011687 | 27.78° C | 32% | 1007.4 hPa | 0 mm | 0.89 m/s, 120° | 111 W/m² | - |
| 1778011383 | 27.22° C | 32% | 1007.4 hPa | 0 mm | 2.68 m/s, 237° | 111 W/m² | - |
| 1778011078 | 27.22° C | 33% | 1007.2 hPa | 0 mm | 4.02 m/s, 228° | 199 W/m² | - |
| 1778010777 | 27.22° C | 32% | 1007.3 hPa | 0 mm | 1.34 m/s, 236° | 145 W/m² | - |
| 1778010473 | 27.78° C | 30% | 1007.4 hPa | 0 mm | 0.89 m/s, 180° | 127 W/m² | - |
| 1778010170 | 27.78° C | 30% | 1007.3 hPa | 0 mm | 3.13 m/s, 216° | 130 W/m² | - |
| 1778009865 | 27.22° C | 31% | 1007.3 hPa | 0 mm | 1.79 m/s, 251° | 119 W/m² | - |
| 1778009564 | 27.78° C | 29% | 1007.4 hPa | 0 mm | 4.92 m/s, 226° | 171 W/m² | - |
| 1778009262 | 27.78° C | 30% | 1007.4 hPa | 0 mm | 3.58 m/s, 239° | 262 W/m² | - |
| 1778008959 | 27.78° C | 31% | 1007.5 hPa | 0 mm | 0.45 m/s, 262° | 141 W/m² | - |
| 1778008657 | 27.78° C | 30% | 1007.4 hPa | 0 mm | 1.79 m/s, 252° | 253 W/m² | - |
| 1778008355 | 27.78° C | 30% | 1007.6 hPa | 0 mm | 1.79 m/s, 186° | 235 W/m² | - |
| 1778008051 | 27.78° C | 30% | 1007.5 hPa | 0 mm | 1.34 m/s, 206° | 487 W/m² | - |
| 1778007751 | 28.33° C | 29% | 1007.5 hPa | 0 mm | 1.34 m/s, 231° | 752 W/m² | - |
| 1778007448 | 28.33° C | 30% | 1007.7 hPa | 0 mm | 0.45 m/s, 331° | 758 W/m² | - |
* Rain latest hour (hover to see other rain measurements)
** Current wind speed in m/s (hover to see current wind gust speed)